Location: *
(60.1759°S, 155.0663°W)
Time: 03:51:50
(UTC+00:00)

Helios 1A Rocket - Pass Details

Date: 17 September 2019
Orbit: 565 x 587 km, 98.3° (Epoch: 15 October)

Event Time Altitude Azimuth Distance (km) Brightness Sun altitude
Rises 14:54:46 0° 357° (N) 2,829 6.2 -11.7°
Reaches altitude 10° 14:57:01 10° 349° (NNW) 1,937 5.3 -11.5°
Maximum altitude 15:00:59 39° 279° (W) 905 3.4 -11.0°
Drops below altitude 10° 15:05:01 10° 208° (SSW) 1,961 5.5 -10.5°
Sets 15:07:19 0° 200° (SSW) 2,869 6.4 -10.2°
